Wind_Speed
43 43 43 43 42 42 42 41 41 41 41 41 41 41 40 40 39 39 38 38 38 38 38 37 37 36 36 36 36 36 35 35 35 35 34 34 34 33 33 33 33 33 33
43 45 45 45 45 44 43 43 43 43 43 43 43 43 42 42 41 40 40 39 40 40 40 40 40 39 39 39 39 39 38 38 38 37 37 37 36 35 35 34 34 33 33
43 45 45 46 46 46 45 44 44 45 45 46 45 45 45 44 44 42 42 41 41 41 42 43 42 41 41 41 41 41 41 41 41 40 39 38 38 37 37 36 35 35 34
44 45 46 47 47 48 47 46 46 47 48 47 47 47 47 47 46 45 45 44 43 43 43 43 44 43 43 43 43 44 44 43 43 42 41 40 39 39 38 38 37 36 36
45 46 46 47 48 49 49 49 48 48 48 48 49 48 48 48 48 47 47 46 46 45 45 44 45 45 44 44 44 45 45 45 45 44 42 41 40 40 40 39 38 38 38
45 46 47 47 48 49 51 51 50 50 49 49 50 49 49 49 49 49 49 48 47 47 46 46 46 46 45 45 45 45 45 45 44 43 43 43 42 42 41 41 40 40 40
45 46 47 48 49 49 50 50 51 51 51 51 51 51 50 50 50 50 49 49 48 47 47 47 46 46 46 46 47 46 45 44 44 44 44 44 44 43 43 42 42 42 41
46 46 47 48 49 50 50 50 51 52 52 51 51 51 50 49 50 49 49 49 48 47 48 48 48 48 48 48 48 48 47 46 46 45 45 45 45 45 44 44 42 42 41
47 47 47 48 49 50 50 50 50 50 50 50 50 50 50 49 48 47 48 48 47 48 48 48 49 50 50 50 49 49 49 48 47 46 46 46 46 45 45 44 44 43 43
47 47 47 47 47 48 48 47 47 48 48 49 49 50 50 49 49 48 47 48 48 49 49 49 49 50 49 49 49 48 48 47 47 46 47 47 46 45 45 45 44 45 44
47 48 48 47 46 45 45 45 45 46 47 47 48 49 50 50 50 49 48 48 49 49 49 49 49 49 49 47 46 47 47 47 46 46 47 47 47 46 46 45 45 44 44
46 46 46 46 45 43 43 43 45 45 46 47 48 49 50 50 51 51 50 48 47 47 48 49 49 48 48 47 46 46 46 46 47 47 47 47 47 47 46 45 45 45 44
45 44 43 43 43 42 42 43 44 46 47 47 48 48 49 50 51 50 49 49 47 46 47 48 49 50 50 49 48 48 48 47 47 48 47 47 47 46 46 46 45 45 45
42 41 40 40 41 42 43 43 43 45 45 45 46 47 47 49 49 49 49 49 48 47 47 47 48 50 51 50 49 50 50 50 49 48 47 46 45 45 45 45 45 45 45
41 41 41 40 40 41 42 42 43 44 44 44 44 44 45 47 48 49 49 50 50 50 48 47 48 49 50 49 49 51 50 48 47 47 45 45 45 45 44 44 45 44 44
39 39 39 39 39 40 40 41 41 41 41 42 43 43 43 45 46 48 49 49 50 51 50 48 48 49 50 49 49 50 49 48 46 45 45 44 45 45 43 43 44 43 43
37 38 37 38 39 40 40 40 40 40 41 42 42 43 44 44 45 46 47 47 49 49 49 47 47 46 46 47 47 48 49 49 47 46 45 44 43 44 43 44 43 42 41
36 36 36 37 39 40 40 40 39 40 40 41 41 42 42 42 43 43 45 46 46 46 46 46 45 44 43 44 45 47 47 48 48 47 46 45 43 42 43 43 42 42 41
34 34 34 36 38 39 39 39 39 39 40 40 41 41 40 40 41 42 43 43 43 44 44 44 44 44 43 43 43 44 44 46 47 47 46 45 44 42 41 40 41 41 39
33 33 33 34 35 37 37 38 38 38 39 39 40 40 40 40 40 41 41 41 42 42 43 44 43 42 42 42 43 42 42 42 44 46 45 44 42 40 39 39 40 39 38
32 31 32 32 33 34 35 36 36 37 38 38 38 39 39 40 39 39 40 40 40 41 42 42 42 42 41 41 42 41 41 40 41 42 42 41 39 38 37 37 38 38 37
30 30 31 31 32 33 33 34 35 36 36 36 36 36 37 38 38 38 37 37 38 39 40 40 40 40 40 40 40 41 40 40 39 39 39 38 38 36 36 35 34 34 34
29 30 31 31 32 31 31 32 33 34 34 35 35 35 35 35 36 35 35 35 35 36 37 38 38 38 38 39 39 39 37 36 36 36 36 36 36 36 34 32 31 31 32
29 30 30 30 30 31 32 32 32 32 33 33 34 34 34 34 33 33 33 34 34 34 33 34 34 34 35 36 36 36 35 34 33 33 33 33 34 34 33 32 30 30 30
29 29 29 30 30 31 31 32 32 32 32 32 32 32 32 32 31 32 32 32 32 31 31 31 30 30 31 31 32 32 32 32 31 30 30 30 31 32 31 30 29 30 29
29 29 30 29 29 29 30 31 31 32 31 31 30 29 30 30 30 31 30 30 30 29 30 29 29 29 28 28 29 29 29 30 30 29 28 28 29 30 30 29 29 29 29
Wind_Direction
262 261 261 262 262 262 262 262 263 263 263 263 263 263 264 264 265 266 266 267 267 267 268 268 269 269 271 272 274 275 276 277 277 278 279 280 281 281 283 284 285 286 287
262 261 261 261 261 261 261 262 262 262 262 262 263 263 263 263 264 266 266 268 269 268 268 269 270 270 271 272 273 274 275 276 276 277 277 278 278 279 281 283 283 285 286
263 263 263 262 262 262 262 262 262 262 261 261 262 263 264 264 264 265 266 268 268 268 269 269 270 270 270 271 272 273 274 275 276 276 276 275 276 277 280 281 282 283 284
265 265 265 264 263 262 262 262 262 262 262 262 262 263 263 263 263 263 265 267 268 269 270 270 270 270 271 272 273 273 274 274 275 275 275 274 275 276 278 280 280 281 283
267 266 265 265 264 263 263 262 262 262 262 262 262 262 263 263 263 263 264 265 267 269 269 270 270 270 271 272 273 274 275 274 274 274 273 272 273 275 277 278 278 280 282
268 268 266 265 265 264 263 262 262 261 262 262 262 262 262 263 263 263 263 264 265 267 268 269 270 270 271 272 274 275 274 274 274 272 272 272 272 273 274 275 277 279 281
267 267 267 266 265 264 264 263 262 261 262 262 262 262 262 263 263 263 263 263 264 265 267 268 269 270 271 272 274 274 274 273 274 272 271 271 272 273 273 274 276 278 280
269 269 268 268 267 264 264 263 262 262 262 262 262 261 260 260 260 261 261 262 263 265 266 268 268 269 272 272 273 273 273 273 273 271 270 270 271 272 273 274 275 277 278
270 269 269 270 268 265 263 262 262 261 260 261 262 262 261 260 258 259 260 261 263 264 267 268 268 269 271 272 272 272 272 273 272 270 269 269 270 271 271 273 274 275 278
269 270 270 269 267 266 264 262 261 261 260 260 260 262 262 261 259 259 259 261 263 264 266 268 269 270 270 271 272 272 272 272 270 269 269 269 269 269 270 271 273 274 276
269 269 269 268 267 265 263 262 262 261 261 262 262 262 262 262 262 261 261 262 262 263 265 267 268 268 269 269 271 272 272 271 270 270 270 269 269 269 270 271 272 273 275
269 270 268 266 266 264 262 262 263 263 263 264 264 264 265 264 263 263 263 263 263 264 265 267 267 268 269 269 271 272 271 270 269 270 270 269 269 269 269 270 271 273 274
268 269 267 264 263 263 264 264 264 264 264 265 266 266 265 265 264 263 263 263 264 264 264 266 266 267 268 268 269 268 270 271 269 269 270 270 270 269 269 269 271 273 274
267 266 266 263 262 263 265 266 266 266 266 267 267 267 266 266 265 264 264 264 263 263 264 266 266 267 267 267 267 266 268 270 269 268 269 270 269 269 268 268 269 272 273
266 266 265 262 262 263 264 265 266 266 267 268 269 269 269 268 267 266 266 266 266 266 266 266 265 266 266 267 268 266 267 268 269 267 266 268 268 268 268 268 271 272 272
267 266 264 262 262 262 264 265 266 267 267 268 269 270 271 270 269 269 268 268 268 268 267 266 266 266 265 266 266 265 265 266 269 266 265 266 268 268 267 268 271 273 272
268 267 265 264 264 263 263 265 266 266 267 268 269 270 272 271 271 271 270 269 268 269 269 268 267 267 267 265 265 264 265 265 267 266 265 264 266 268 268 269 271 272 270
267 267 266 265 264 264 264 266 267 267 268 269 269 271 272 273 273 272 270 270 270 270 270 270 268 267 267 265 265 265 265 265 266 265 265 265 265 268 269 270 270 271 271
269 268 268 267 266 265 265 266 267 268 269 269 270 272 272 273 273 272 272 271 271 271 271 271 270 268 266 265 265 266 266 266 265 265 265 265 266 268 268 269 268 270 269
270 269 268 269 267 265 266 266 266 268 269 269 270 270 271 272 273 272 272 272 273 273 273 272 270 267 265 264 265 266 266 265 265 264 264 265 266 267 267 268 267 267 267
272 270 269 270 269 268 267 267 267 268 270 270 270 271 271 272 274 274 274 274 274 274 273 272 270 268 265 264 265 264 264 264 264 264 264 263 264 266 266 268 266 266 266
272 271 273 273 272 271 271 270 269 270 271 271 271 272 272 273 274 275 274 273 274 274 274 273 270 268 265 264 263 263 264 264 264 263 264 264 264 263 265 267 266 264 263
274 272 272 273 272 272 273 273 273 272 272 272 273 273 273 273 273 272 272 273 275 276 275 273 270 268 265 263 262 262 262 262 262 260 261 262 263 263 264 264 263 262 262
275 274 274 273 272 274 275 275 274 273 273 274 273 272 273 272 271 271 271 272 275 276 276 275 274 270 265 263 261 260 260 259 259 259 260 261 261 261 263 263 263 264 265
276 277 278 277 275 274 273 273 274 274 273 274 274 273 272 271 270 271 273 274 274 275 277 277 275 270 266 264 261 259 257 257 256 258 260 260 260 259 260 261 262 264 266
276 278 281 280 278 276 273 273 274 275 274 272 272 272 271 271 271 272 273 274 273 274 275 275 272 268 266 265 261 259 257 256 255 255 257 259 260 259 258 259 260 261 263
Height
5763 5764 5765 5766 5767 5768 5769 5770 5771 5772 5774 5775 5776 5777 5778 5779 5781 5782 5783 5784 5784 5785 5785 5786 5787 5787 5788 5788 5788 5788 5788 5788 5788 5788 5787 5787 5786 5785 5784 5783 5782 5780 5779
5752 5753 5754 5755 5756 5757 5758 5759 5760 5761 5762 5763 5765 5766 5768 5769 5770 5772 5773 5774 5775 5775 5776 5776 5777 5778 5778 5778 5779 5779 5779 5779 5779 5779 5778 5778 5778 5777 5776 5775 5774 5773 5771
5740 5741 5742 5743 5744 5745 5746 5748 5749 5750 5751 5752 5753 5755 5756 5758 5760 5761 5762 5763 5764 5765 5765 5766 5767 5768 5768 5768 5769 5769 5769 5769 5769 5769 5768 5768 5768 5768 5768 5767 5766 5765 5763
5729 5729 5730 5731 5732 5733 5734 5736 5737 5738 5738 5739 5741 5743 5744 5746 5748 5750 5751 5752 5753 5754 5755 5756 5756 5757 5757 5758 5758 5758 5758 5758 5758 5758 5758 5758 5758 5758 5758 5758 5757 5756 5755
5718 5718 5718 5719 5719 5720 5721 5723 5724 5725 5726 5727 5728 5730 5732 5734 5736 5738 5740 5741 5742 5743 5744 5745 5745 5746 5746 5746 5747 5747 5747 5747 5747 5747 5747 5748 5748 5748 5748 5748 5747 5747 5746
5706 5706 5707 5707 5707 5708 5709 5710 5711 5712 5713 5714 5716 5717 5720 5722 5723 5725 5727 5729 5730 5732 5732 5733 5735 5735 5735 5735 5736 5735 5735 5735 5735 5736 5736 5737 5737 5738 5738 5738 5738 5737 5736
5695 5695 5695 5695 5695 5695 5696 5697 5698 5699 5700 5701 5703 5704 5707 5709 5710 5712 5714 5716 5718 5720 5721 5722 5723 5724 5724 5724 5724 5724 5723 5723 5723 5724 5725 5725 5726 5727 5727 5727 5727 5727 5726
5683 5683 5683 5682 5682 5683 5683 5684 5685 5686 5687 5688 5689 5690 5694 5697 5698 5700 5702 5704 5706 5707 5709 5710 5711 5712 5712 5712 5712 5711 5711 5711 5711 5712 5713 5713 5714 5715 5716 5716 5716 5716 5715
5671 5671 5670 5669 5669 5670 5670 5671 5672 5673 5674 5676 5676 5677 5680 5683 5687 5690 5690 5692 5694 5695 5696 5698 5698 5699 5699 5699 5699 5699 5699 5699 5698 5699 5700 5701 5702 5703 5704 5705 5705 5705 5705
5659 5658 5657 5656 5656 5657 5657 5658 5659 5660 5662 5664 5664 5665 5667 5670 5673 5677 5680 5681 5682 5683 5684 5685 5686 5687 5686 5687 5687 5687 5686 5686 5686 5687 5688 5689 5690 5691 5692 5693 5694 5694 5694
5646 5645 5644 5644 5644 5644 5645 5646 5647 5649 5650 5652 5653 5654 5656 5657 5659 5662 5666 5669 5670 5671 5671 5672 5673 5674 5674 5674 5674 5674 5674 5674 5674 5675 5676 5677 5678 5679 5680 5681 5681 5682 5682
5634 5632 5631 5631 5632 5633 5635 5636 5637 5638 5639 5640 5641 5642 5644 5646 5647 5648 5651 5654 5656 5659 5659 5660 5660 5661 5661 5661 5662 5662 5662 5662 5663 5663 5664 5665 5666 5667 5667 5668 5669 5670 5671
5622 5621 5620 5620 5621 5622 5624 5625 5626 5627 5628 5629 5630 5631 5631 5632 5634 5635 5637 5639 5642 5645 5647 5647 5647 5647 5648 5648 5649 5650 5650 5650 5651 5651 5652 5653 5654 5654 5655 5656 5657 5658 5658
5611 5610 5610 5610 5611 5612 5613 5615 5616 5616 5617 5618 5618 5619 5619 5620 5621 5622 5624 5625 5627 5631 5633 5635 5635 5634 5635 5635 5636 5637 5637 5638 5638 5639 5640 5641 5641 5642 5643 5643 5644 5645 5646
5599 5599 5599 5599 5601 5602 5603 5604 5605 5606 5606 5607 5607 5607 5608 5608 5609 5610 5611 5612 5613 5615 5619 5621 5622 5621 5621 5621 5622 5623 5624 5625 5625 5627 5628 5629 5629 5630 5631 5631 5632 5633 5634
5588 5588 5589 5589 5591 5591 5592 5593 5594 5595 5595 5596 5596 5596 5596 5596 5597 5597 5598 5599 5599 5600 5602 5605 5606 5607 5607 5607 5608 5609 5610 5612 5613 5614 5616 5617 5618 5618 5619 5620 5620 5621 5621
5579 5579 5579 5580 5581 5581 5582 5583 5584 5584 5585 5585 5585 5585 5585 5585 5585 5585 5586 5586 5586 5586 5588 5591 5591 5592 5592 5593 5594 5595 5597 5599 5600 5602 5603 5605 5606 5606 5607 5608 5608 5609 5609
5570 5569 5570 5571 5571 5572 5572 5573 5573 5574 5574 5575 5574 5574 5574 5574 5574 5574 5574 5574 5575 5575 5575 5577 5578 5578 5579 5580 5581 5583 5584 5586 5588 5590 5591 5593 5594 5595 5596 5596 5597 5597 5598
5560 5560 5560 5561 5561 5561 5562 5563 5563 5564 5564 5564 5564 5564 5564 5564 5564 5564 5563 5563 5564 5563 5563 5564 5566 5566 5567 5568 5569 5570 5572 5573 5575 5577 5579 5581 5582 5583 5584 5585 5585 5586 5587
5551 5552 5552 5551 5551 5551 5551 5552 5553 5553 5554 5554 5554 5554 5554 5554 5553 5553 5553 5553 5552 5552 5552 5552 5553 5554 5555 5556 5557 5559 5560 5561 5563 5565 5567 5569 5571 5572 5573 5574 5575 5576 5577
5543 5542 5542 5542 5542 5542 5542 5542 5543 5544 5544 5544 5544 5543 5543 5543 5543 5542 5542 5542 5541 5541 5541 5541 5542 5543 5544 5545 5546 5547 5548 5550 5552 5554 5556 5559 5561 5562 5563 5563 5564 5565 5566
5535 5534 5534 5533 5533 5533 5533 5533 5533 5534 5534 5534 5534 5534 5534 5533 5533 5532 5532 5532 5531 5531 5531 5531 5531 5532 5533 5534 5535 5535 5537 5540 5542 5544 5546 5548 5550 5552 5553 5554 5554 5555 5556
5527 5527 5527 5526 5526 5526 5525 5525 5524 5524 5525 5525 5525 5525 5525 5524 5524 5523 5523 5523 5522 5521 5521 5521 5520 5521 5521 5522 5524 5526 5527 5528 5531 5533 5535 5538 5540 5542 5543 5544 5545 5546 5548
5521 5520 5519 5519 5519 5518 5517 5517 5516 5516 5516 5516 5516 5516 5516 5515 5515 5515 5515 5514 5513 5512 5512 5511 5511 5511 5510 5511 5513 5515 5517 5519 5522 5523 5526 5529 5530 5532 5534 5535 5536 5538 5540
5513 5512 5511 5511 5511 5510 5509 5509 5508 5508 5508 5508 5507 5507 5507 5507 5507 5507 5506 5506 5505 5504 5503 5502 5502 5502 5502 5503 5504 5506 5508 5511 5513 5516 5517 5520 5522 5524 5526 5527 5529 5530 5531
5505 5505 5504 5503 5502 5502 5501 5501 5500 5500 5500 5500 5500 5499 5499 5499 5499 5498 5498 5498 5497 5496 5495 5495 5494 5494 5494 5495 5496 5498 5500 5503 5505 5508 5509 5512 5514 5516 5519 5520 5521 5522 5524